This demonstration page uses our WeatherBlox Daily Observations layout. Learn more.

Left ArrowRight Arrow

36.17497, -115.13722

Hourly Observations for December 27, 2020

Temp ( °F °C ) Dew Point ( °F °C ) Humidity (%) Winds ( mph kmh ) Pressure ( in mb ) Visibility ( mi km ) Precip ( " mm )
12:53 am 00:53 Clear 46 7.8 11 -11.7 24 24 WSW 3 6 30.09 1019 10 16.0934 0 0
1:53 am 01:53 Clear 46 7.8 14 -10 27 27 W 7 11 30.09 1019 10 16.0934 0 0
2:53 am 02:53 Clear 47 8.3 15 -9.4 28 28 WNW 8 13 30.07 1018 10 16.0934 0 0
3:53 am 03:53 Clear 48 8.9 16 -8.9 28 28 W 5 7 30.07 1018 10 16.0934 0 0
4:53 am 04:53 Mostly Cloudy 48 8.9 17 -8.3 29 29 Calm 30.07 1018 10 16.0934 0 0
5:53 am 05:53 Cloudy 48 8.9 17 -8.3 29 29 WSW 6 9 30.09 1019 10 16.0934 0 0
6:53 am 06:53 Cloudy 51 10.6 16 -8.9 25 25 NW 8 13 30.09 1019 10 16.0934 0 0
7:53 am 07:53 Cloudy 52 11.1 16 -8.9 24 24 N 8 13 30.08 1019 10 16.0934 0 0
8:53 am 08:53 Cloudy 50 10 16 -8.9 26 26 SSE 7 11 30.11 1020 10 16.0934 0 0
9:53 am 09:53 Cloudy 53 11.7 17 -8.3 24 24 S 3 6 30.11 1020 10 16.0934 0 0
10:53 am 10:53 Cloudy 55 12.8 17 -8.3 22 22 Calm 30.09 1019 10 16.0934 0 0
11:53 am 11:53 Cloudy 55 12.8 16 -8.9 21 21 N 6 9 30.05 1018 10 16.0934 0 0
12:53 pm 12:53 Cloudy 56 13.3 18 -7.8 22 22 N 6 9 30.01 1016 10 16.0934 0 0
1:53 pm 13:53 Mostly Cloudy 56 13.3 29 -1.7 36 36 NE 3 6 29.98 1015 10 16.0934 0 0
2:53 pm 14:53 Sunny 57 13.9 29 -1.7 34 34 Calm 29.97 1015 10 16.0934 0 0
3:53 pm 15:53 Sunny 57 13.9 26 -3.3 30 30 N 5 7 29.96 1014 10 16.0934 0 0
4:53 pm 16:53 Clear 53 11.7 28 -2.2 38 38 SW 5 7 29.96 1015 10 16.0934 0 0
5:53 pm 17:53 Mostly Clear 50 10 27 -2.8 41 41 SW 3 6 29.96 1015 10 16.0934 0 0
6:53 pm 18:53 Partly Cloudy 50 10 25 -3.9 38 38 SSW 5 7 29.96 1014 10 16.0934 0 0
7:53 pm 19:53 Clear 48 8.9 23 -5 37 37 SSW 3 6 29.94 1014 10 16.0934 0 0
8:53 pm 20:53 Clear 46 7.8 23 -5 40 40 WSW 7 11 29.94 1014 10 16.0934 0 0
9:53 pm 21:53 Clear 46 7.8 24 -4.4 42 42 SW 7 11 29.92 1013 10 16.0934 0 0
10:53 pm 22:53 Clear 46 7.8 24 -4.4 42 42 SSW 7 11 29.9 1012 10 16.0934 0 0
11:53 pm 23:53 Clear 43 6.1 24 -4.4 47 47 SW 7 11 29.87 1012 10 16.0934 0 0

Powered by AerisWeather